Погода в Беласовке

Россия / Нижегородская область     56°54′59″N   44°36′40″E
темп.,
°C
ветер,
м/с
пор.,
м/с
влажн.,
%
обл.,
%
осадки,
мм/ч
давл.,
гПа
погр.,
м
4 декабря, сб
сб400:000ююв51498100 2.9 1001730
03:00+3ююз51497100 7.0 9971047
06:00+2зюз51197100 3.2 995821
09:000зюз6118181 4.3 9981051
12:00−2зюз61181100 0.1 10011108
15:00−3зюз51181100 0.3 10021256
18:00−3зюз51189100 0.3 10041167
21:00−4зюз51188100 0.4 1006897
5 декабря, вс
вс500:00−5з4987100 0.1 1008971
03:00−6зсз4987100 0.3 1011928
06:00−10сз478299 0.1 1013534
09:00−11сз247754 0.1 1016460
12:00−10сз247112 0.0 1017510
15:00−10ссз23725 0.0 1019428
18:00−11ссв23775 0.0 1020309
21:00−12св228079 0.0 1021256
6 декабря, пн
пн600:00−12св228085 0.0 1023223
03:00−12св238249 0.0 1024200
06:00−12всв238280 0.0 1024218
09:00−11в248683 0.1 1026249
12:00−9в3487100 0.3 1026315
15:00−9в3589100 0.6 1027292
18:00−9в3692100 0.2 1028251
21:00−8в3792100 0.4 1027248
7 декабря, вт
вт700:00−7вюв3794100 0.3 1028239
03:00−6вюв3994100 0.6 1027312
06:00−6вюв41293100 0.0 1026386
09:00−5юв51490100 0.0 1025524
12:00−3юв51482100 0.0 1024756
15:00−4юв61594100 1.5 1021843
18:00−4юв71694100 3.4 1019813
21:00−3юв61495100 6.0 1017672
8 декабря, ср
ср800:00−2юв51296100 2.3 1015539
03:00−1юв41298100 5.5 1013500
06:00+2ю41399100 3.5 1011655
09:00+2ююз51399100 6.4 1012706
12:00+2ююз41199100 0.3 1013619
15:00+1юз2799100 0.6 1015468
18:000зюз1399100 0.7 1017225
21:00−2сз2498100 2.7 1018199